Location: ???????
(55.4362°N, 38.1183°E)
Time: 15:25:45
(UTC+00:00)

FALCON 9 DEB - Pass Details

Date: 30 October 2021
Orbit: 344 x 356 km, 53.0° (Epoch: 29 November)

Event Time Altitude Azimuth Distance (km) Brightness Sun altitude
Rises 16:30:46 0° 246° (WSW) 2,179 7.6 -22.7°
Reaches altitude 10° 16:32:49 10° 239° (WSW) 1,341 6.3 -23.0°
Enters shadow 16:34:01 21° 228° (SW) 888 5.1 -23.2°
